Regional Weather Roundup
Issued by NWS

Home | Current Version | Previous Version | Text Only | Print | Product List | Glossary On
Versions: 1 2 3 4 5 6 7 8 9 10 11 12 13 14 15 16 17 18 19 20 21 22 23 24 25 26 27 28 29 30 31 32 33 34 35 36 37 38 39 40 41 42 43 44 45 46 47 48 49 50
000
ASUS44 KOUN 282300
RWROK

WEATHER ROUNDUP FOR OKLAHOMA
NATIONAL WEATHER SERVICE NORMAN OK
600 PM CDT THU JUL 28 2016

NOTE: "FAIR" INDICATES FEW OR NO CLOUDS BELOW 12,000 FEET WITH NO
      SIGNIFICANT WEATHER AND/OR OBSTRUCTIONS TO VISIBILITY.

OKZ001>007-009>012-014-015-017-290000-
NORTHWEST OKLAHOMA AND THE PANHANDLE

CITY           SKY/WX    TMP DP  RH WIND       PRES   REMARKS
GAGE           SUNNY     97  61  30 SE8       29.93F HX  97
GUYMON         SUNNY     93  54  26 S9        29.98F HX  91
ENID/WOODRING  PTSUNNY   77  70  78 NE24G32   29.94R
$$

OKZ016-021>023-033>039-044-045-290000-
SOUTHWEST OKLAHOMA

CITY           SKY/WX    TMP DP  RH WIND       PRES   REMARKS
LAWTON/REGL    MOSUNNY   99  65  32 SE7       29.87F HX 102
FREDERICK      SUNNY     98  67  36 SE10      29.86F HX 102
CLINTON        SUNNY     98  62  30 S5        29.94F HX  99
HOBART         MOSUNNY   98  66  34 SE9       29.90F HX 101
$$

OKZ018>020-024>031-290000-
CENTRAL OKLAHOMA

CITY           SKY/WX    TMP DP  RH WIND       PRES   REMARKS
OKLAHOMA CITY  PTSUNNY   94  73  50 SE8       29.91F HX 103
OKC/WILEY POST CLOUDY    92  70  48 E9        29.92S HX  97
STILLWATER     HVY RAIN  72  68  87 NW20G30   29.98R VSB 1
GUTHRIE        RAIN      81  73  76 NE8       29.93R
$$

OKZ008-013-054>072-290000-
NORTHEAST OKLAHOMA

CITY           SKY/WX    TMP DP  RH WIND       PRES   REMARKS
TULSA          TSTM      77  71  82 S25G35    29.92R
TULSA/JONES    TSTM      76  71  85 N15G41    29.93R
PONCA CITY     CLOUDY    72  68  87 NW5       29.91F
BARTLESVILLE   CLOUDY    81  74  79 VRB5      29.92F
MUSKOGEE       MOSUNNY   91  73  55 W5        29.90S HX  99
$$

OKZ032-040>043-046>053-073>077-290000-
SOUTH CENTRAL/SOUTHEAST OKLAHOMA

CITY           SKY/WX    TMP DP  RH WIND       PRES   REMARKS
MCALESTER      SUNNY     95  73  48 CALM      29.91S HX 104
$$





USA.gov is the U.S. government's official web portal to all federal, state and local government web resources and services.